FW0041 Weather Reports


Display with metric or nautical units.
time (UTC)temp
F
wind
direction
speed
MPH
gust
MPH
rain 1hr
in
rain 24hr
in
rain mn
in
humidity
%
barometer
mb
20260831171527 95 153 1.0 4.0 0.00 0.00 0.00 50 1016.8
20260831170056 94 38 0.0 4.0 0.00 0.00 0.00 50 1016.9
20260831164521 95 41 0.0 5.0 0.00 0.00 0.00 49 1017.0
20260831163048 94 48 0.0 3.0 0.00 0.00 0.00 53 1017.0
20260831161514 92 49 1.0 3.0 0.00 0.00 0.00 57 1017.1
20260831160036 89 49 0.0 5.0 0.00 0.00 0.00 62 1017.3
20260831154555 86 157 0.0 3.0 0.00 0.00 0.00 70 1017.4
20260831153014 83 165 1.0 3.0 0.00 0.00 0.00 74 1017.2
20260831151544 82 164 0.0 3.0 0.00 0.00 0.00 77 1017.2
20260831150020 81 176 0.0 3.0 0.00 0.00 0.00 82 1017.2
20260831144551 81 176 0.0 3.0 0.00 0.00 0.00 85 1017.2
20260831143013 80 176 1.0 2.0 0.00 0.00 0.00 86 1017.1
20260831141539 80 176 1.0 3.0 0.00 0.00 0.00 87 1017.0
20260831140009 79 176 2.0 5.0 0.00 0.00 0.00 87 1017.0
20260831134531 79 176 0.0 1.0 0.00 0.00 0.00 87 1016.8
20260831133051 78 176 0.0 2.0 0.00 0.00 0.00 87 1016.7
20260831131517 77 176 0.0 0.0 0.00 0.00 0.00 86 1016.7
20260831130043 77 176 0.0 0.0 0.00 0.00 0.00 86 1016.6
20260831124525 77 176 0.0 0.0 0.00 0.00 0.00 85 1016.5
20260831123027 77 176 0.0 0.0 0.00 0.00 0.00 84 1016.3
20260831121555 77 176 0.0 0.0 0.00 0.00 0.00 84 1015.9
20260831120024 77 176 0.0 0.0 0.00 0.00 0.00 84 1015.7
20260831114552 77 176 0.0 0.0 0.00 0.00 0.00 83 1015.6
20260831113019 77 176 0.0 0.0 0.00 0.00 0.00 83 1015.5
20260831111550 77 176 0.0 0.0 0.00 0.00 0.00 83 1015.5
20260831110018 77 176 0.0 0.0 0.00 0.00 0.00 83 1015.4
20260831104549 77 176 0.0 0.0 0.00 0.00 0.00 82 1015.3
20260831103008 78 176 0.0 0.0 0.00 0.00 0.00 82 1015.3
20260831101530 78 176 0.0 0.0 0.00 0.00 0.00 82 1015.4
20260831100005 78 176 0.0 1.0 0.00 0.00 0.00 81 1015.5
20260831094529 78 176 0.0 0.0 0.00 0.00 0.00 80 1015.5
20260831093056 79 176 0.0 0.0 0.00 0.00 0.00 80 1015.3
20260831091522 79 176 0.0 0.0 0.00 0.00 0.00 80 1015.4
20260831090046 79 176 0.0 0.0 0.00 0.00 0.00 80 1015.3
20260831084518 79 176 0.0 0.0 0.00 0.00 0.00 79 1015.2
20260831083047 80 176 0.0 1.0 0.00 0.00 0.00 78 1015.4
20260831081514 80 176 0.0 0.0 0.00 0.00 0.00 78 1015.4
20260831080040 80 176 0.0 1.0 0.00 0.00 0.00 77 1015.3
20260831074506 81 176 0.0 0.0 0.00 0.00 0.00 77 1015.4
20260831073030 81 176 0.0 0.0 0.00 0.00 0.00 76 1015.4
20260831071552 81 176 0.0 0.0 0.00 0.00 0.00 75 1015.5
20260831070026 81 176 0.0 1.0 0.00 0.00 0.00 75 1015.5
20260831064540 82 176 0.0 0.0 0.00 0.00 0.00 74 1015.5
20260831063012 82 176 0.0 0.0 0.00 0.00 0.00 73 1015.5
20260831061537 82 176 0.0 1.0 0.00 0.00 0.00 72 1015.5
20260831060008 83 176 0.0 0.0 0.00 0.00 0.00 71 1015.5
20260831054534 83 176 0.0 0.0 0.00 0.00 0.00 70 1015.5
20260831053010 83 176 0.0 1.0 0.00 0.00 0.00 69 1015.4
20260831051540 84 176 0.0 1.0 0.00 0.00 0.00 67 1015.4
20260831050115 84 176 0.0 2.0 0.00 0.00 0.00 67 1015.4
20260831044503 85 176 0.0 3.0 0.00 0.00 0.00 64 1015.4
20260831043036 85 176 0.0 2.0 0.00 0.00 0.00 62 1015.2
20260831041507 85 176 0.0 1.0 0.00 0.00 0.00 61 1015.2
20260831040033 86 176 0.0 1.0 0.00 0.00 0.00 60 1014.9
20260831034604 86 176 0.0 1.0 0.00 0.00 0.00 58 1014.8
20260831034501 86 176 0.0 1.0 0.00 0.00 0.00 58 1014.8
20260831033033 87 176 0.0 0.0 0.00 0.00 0.00 56 1014.6
20260831031602 87 176 0.0 1.0 0.00 0.00 0.00 55 1014.7
20260831031502 87 176 0.0 1.0 0.00 0.00 0.00 55 1014.7
20260831030031 88 176 0.0 1.0 0.00 0.00 0.00 53 1014.6
20260831024613 88 176 0.0 1.0 0.00 0.00 0.00 52 1014.3
20260831023029 89 176 0.0 2.0 0.00 0.00 0.00 49 1014.1
20260831021548 89 176 0.0 2.0 0.00 0.00 0.00 47 1013.9
20260831020029 90 176 0.0 1.0 0.00 0.00 0.00 46 1013.7
20260831014608 91 176 1.0 2.0 0.00 0.00 0.00 44 1013.6
20260831013027 91 176 0.0 2.0 0.00 0.00 0.00 43 1013.7
20260831011602 92 179 0.0 2.0 0.00 0.00 0.00 44 1013.6
20260831010029 93 179 0.0 2.0 0.00 0.00 0.00 43 1013.4
20260831004555 94 179 1.0 3.0 0.00 0.00 0.00 42 1013.3
20260831003028 95 179 1.0 3.0 0.00 0.00 0.00 41 1013.1
20260831001601 97 180 0.0 2.0 0.00 0.00 0.00 40 1013.0
20260831000028 98 180 0.0 2.0 0.00 0.00 0.00 38 1013.0
20260830234611 99 180 1.0 5.0 0.00 0.00 0.00 37 1013.1
20260830234501 99 180 1.0 5.0 0.00 0.00 0.00 37 1013.0
20260830233034 100 184 1.0 5.0 0.00 0.00 0.00 37 1013.1
20260830231554 101 153 0.0 3.0 0.00 0.00 0.00 36 1013.0
20260830230033 102 169 2.0 5.0 0.00 0.00 0.00 36 1013.1
20260830224550 102 146 1.0 4.0 0.00 0.00 0.00 36 1013.1
20260830223020 103 180 1.0 3.0 0.00 0.00 0.00 33 1013.1
20260830221534 103 194 1.0 6.0 0.00 0.00 0.00 33 1013.3
20260830220056 103 167 1.0 7.0 0.00 0.00 0.00 33 1013.3
20260830214526 102 184 3.0 9.0 0.00 0.00 0.00 34 1013.4
20260830213111 102 193 2.0 9.0 0.00 0.00 0.00 34 1013.5
20260830211520 102 173 2.0 7.0 0.00 0.00 0.00 35 1013.6
20260830210047 103 185 3.0 11.0 0.00 0.00 0.00 34 1013.9
20260830204518 103 256 2.0 13.0 0.00 0.00 0.00 35 1014.2
20260830203034 103 181 2.0 8.0 0.00 0.00 0.00 35 1014.4
20260830201517 103 187 3.0 9.0 0.00 0.00 0.00 35 1014.4
20260830200026 102 196 1.0 7.0 0.00 0.00 0.00 36 1014.6
20260830194553 101 202 1.0 8.0 0.00 0.00 0.00 37 1014.8
20260830193013 100 190 2.0 9.0 0.00 0.00 0.00 37 1015.2
20260830191533 99 223 3.0 13.0 0.00 0.00 0.00 39 1015.5
20260830190054 98 158 1.0 7.0 0.00 0.00 0.00 42 1015.6
20260830184519 96 179 2.0 6.0 0.00 0.00 0.00 44 1015.8
20260830183041 95 5 2.0 4.0 0.00 0.00 0.00 48 1016.0
20260830181513 94 198 1.0 5.0 0.00 0.00 0.00 46 1016.3
20260830180037 94 182 2.0 5.0 0.00 0.00 0.00 49 1016.6
20260830174505 93 213 0.0 3.0 0.00 0.00 0.00 52 1016.9
20260830173037 93 356 2.0 4.0 0.00 0.00 0.00 54 1017.1